Bierset, Belgium

3:47 AM CEST on March 26, 2017 (GMT +0200)
Bierset

Weather History for EBLG - October, 2012

Change the Weather History Date:

Sunday, October 14, 2012

  Actual Average Record
Temperature  
Mean Temperature 44 °F -  
Max Temperature 48 °F 51 °F 71 °F (2005)
Min Temperature 41 °F 41 °F 33 °F (2010)
Degree Days  
Heating Degree Days 20    
Moisture  
Dew Point 40 °F    
Average Humidity 84    
Maximum Humidity 93    
Minimum Humidity 69    
Precipitation  
Precipitation 0.00 in - - ()
Sea Level Pressure  
Sea Level Pressure 29.56 in    
Wind  
Wind Speed 10 mph ()    
Max Wind Speed 15 mph    
Max Gust Speed -    
Visibility 7.9 miles    
Events      
Averages and records for this station are not official NWS values.
T = Trace of Precipitation, MM = Missing Value Source: Averaged Metar Reports

Daily Weather History Graph

Daily Weather History Graph

Search for Another Location

Airport or City:

Trip Planner

Search our weather history database for the weather conditions in past years. The results will help you decide how hot, cold, wet, or windy it might be!

Date:

Astronomy

Oct. 14, 2012 Rise Set
Actual Time 7:59 AM CEST 6:47 PM CEST
Civil Twilight 7:26 AM CEST 7:20 PM CEST
Nautical Twilight 6:48 AM CEST 7:58 PM CEST
Astronomical Twilight 6:10 AM CEST 8:36 PM CEST
Moon 6:36 AM CEST (10/14) 5:58 PM CEST (10/14)
Length of Visible Light 11h 53m
Length of Day
10h 47m
Waning Crescent, 2% of the Moon is Illuminated
Oct 14
Waning Crescent
Oct 15
New
Oct 22
First Quarter
Oct 29
Full
Nov 7
Last Quarter

Hourly Weather History & Observations

Time (CEST) Temp. Windchill Dew Point Humidity Pressure Visibility Wind Dir Wind Speed Gust Speed Precip Events Conditions
12:20 AM 42.8 °F 35.4 °F 39.2 °F 87% 29.65 in - SW 15.0 mph - N/A   Clear
12:50 AM 42.8 °F 35.4 °F 39.2 °F 87% 29.65 in 6.2 mi SW 15.0 mph - N/A   Partly Cloudy
1:20 AM 42.8 °F 35.4 °F 39.2 °F 87% 29.65 in 6.2 mi SW 15.0 mph - N/A   Partly Cloudy
1:50 AM 42.8 °F 35.8 °F 39.2 °F 87% 29.65 in 6.2 mi SSW 13.8 mph - N/A   Partly Cloudy
2:20 AM 42.8 °F 35.8 °F 39.2 °F 87% 29.65 in 6.2 mi SSW 13.8 mph - N/A   Scattered Clouds
2:50 AM 42.8 °F 35.8 °F 39.2 °F 87% 29.65 in 6.2 mi SW 13.8 mph - N/A   Scattered Clouds
3:20 AM 42.8 °F 35.8 °F 39.2 °F 87% 29.65 in 6.2 mi SSW 13.8 mph - N/A   Partly Cloudy
3:50 AM 42.8 °F 36.2 °F 39.2 °F 87% 29.65 in - SSW 12.7 mph - N/A   Clear
4:20 AM 42.8 °F 36.2 °F 39.2 °F 87% 29.62 in 6.2 mi SSW 12.7 mph - N/A   Partly Cloudy
4:50 AM 42.8 °F 35.8 °F 39.2 °F 87% 29.62 in 6.2 mi SSW 13.8 mph - N/A   Scattered Clouds
5:00 AM 42 °F - 40 °F 88% 29.65 in 12 mi SSW 13.4 mph - -   Partly Cloudy
5:20 AM 42.8 °F 35.8 °F 39.2 °F 87% 29.62 in 6.2 mi SSW 13.8 mph - N/A   Scattered Clouds
6:20 AM 42.8 °F 37.0 °F 39.2 °F 87% 29.62 in 6.2 mi SSW 10.4 mph - N/A   Partly Cloudy
6:50 AM 42.8 °F 36.6 °F 39.2 °F 87% 29.62 in - SSW 11.5 mph - N/A   Clear
7:20 AM 42.8 °F 36.6 °F 39.2 °F 87% 29.62 in 6.2 mi SSW 11.5 mph - N/A   Mostly Cloudy
7:50 AM 42.8 °F 36.6 °F 39.2 °F 87% 29.59 in 6.2 mi SSW 11.5 mph - N/A   Mostly Cloudy
8:00 AM 43 °F - 40 °F 83% 29.63 in 16 mi SSW 11.2 mph - -   Mostly Cloudy
8:20 AM 42.8 °F 36.6 °F 39.2 °F 87% 29.59 in 6.2 mi SSW 11.5 mph - N/A   Mostly Cloudy
8:50 AM 42.8 °F 36.2 °F 39.2 °F 87% 29.59 in 6.2 mi SSW 12.7 mph - N/A   Scattered Clouds
9:20 AM 42.8 °F 35.8 °F 39.2 °F 87% 29.62 in 6.2 mi SSW 13.8 mph - N/A   Scattered Clouds
9:50 AM 44.6 °F 38.8 °F 39.2 °F 81% 29.59 in 6.2 mi SSW 11.5 mph - N/A   Scattered Clouds
10:20 AM 44.6 °F 38.4 °F 39.2 °F 81% 29.59 in 6.2 mi SSW 12.7 mph - N/A   Partly Cloudy
10:50 AM 44.6 °F 39.7 °F 41.0 °F 87% 29.59 in - SSW 9.2 mph - N/A   Clear
11:00 AM 44 °F - 40 °F 81% 29.62 in 19 mi SSW 8.9 mph - -   Clear
11:20 AM 44.6 °F 39.7 °F 41.0 °F 87% 29.56 in - South 9.2 mph - N/A   Clear
11:50 AM 44.6 °F 39.7 °F 41.0 °F 87% 29.59 in 6.2 mi SSW 9.2 mph - N/A   Partly Cloudy
12:20 PM 44.6 °F 40.2 °F 41.0 °F 87% 29.56 in 6.2 mi South 8.1 mph - N/A   Partly Cloudy
12:50 PM 44.6 °F 40.2 °F 41.0 °F 87% 29.56 in 6.2 mi South 8.1 mph - N/A   Partly Cloudy
1:20 PM 46.4 °F 41.9 °F 41.0 °F 81% 29.56 in 6.2 mi South 9.2 mph - N/A   Partly Cloudy
1:50 PM 46.4 °F 42.4 °F 41.0 °F 81% 29.53 in 6.2 mi South 8.1 mph - N/A   Partly Cloudy
2:00 PM 46 °F - 40 °F 74% 29.56 in 19 mi South 8.9 mph - -   Scattered Clouds
2:20 PM 46.4 °F 42.4 °F 41.0 °F 81% 29.53 in 6.2 mi South 8.1 mph - N/A   Partly Cloudy
2:50 PM 46.4 °F 43.5 °F 41.0 °F 81% 29.53 in 6.2 mi South 5.8 mph - N/A   Partly Cloudy
3:20 PM 46.4 °F 43.5 °F 39.2 °F 76% 29.50 in - South 5.8 mph - N/A   Clear
3:50 PM 48.2 °F - 39.2 °F 71% 29.50 in - SE 3.5 mph - N/A   Clear
4:20 PM 48.2 °F - 41.0 °F 76% 29.50 in - SSE 3.5 mph - N/A   Clear
4:50 PM 46.4 °F 45.2 °F 39.2 °F 76% 29.50 in - SSE 3.5 mph - N/A   Clear
5:00 PM 47 °F - 40 °F 69% 29.52 in 19 mi SSE 4.5 mph - -   Mostly Cloudy
5:20 PM 46.4 °F 45.2 °F 39.2 °F 76% 29.50 in - South 3.5 mph - N/A   Clear
5:50 PM 46.4 °F - 41.0 °F 81% 29.50 in 6.2 mi South 2.3 mph - N/A   Partly Cloudy
6:20 PM 44.6 °F 41.4 °F 39.2 °F 81% 29.50 in 6.2 mi South 5.8 mph - N/A   Partly Cloudy
6:50 PM 44.6 °F 42.2 °F 39.2 °F 81% 29.50 in 6.2 mi SSW 4.6 mph - N/A   Partly Cloudy
7:20 PM 44.6 °F 42.2 °F 39.2 °F 81% 29.50 in 6.2 mi South 4.6 mph - N/A   Partly Cloudy
7:50 PM 44.6 °F 42.2 °F 39.2 °F 81% 29.50 in 6.2 mi SW 4.6 mph - N/A   Partly Cloudy
8:00 PM 44 °F - 39 °F 77% 29.52 in 19 mi SW 4.5 mph - -   Scattered Clouds
8:20 PM 44.6 °F 43.1 °F 39.2 °F 81% 29.47 in - SW 3.5 mph - N/A   Clear
8:50 PM 42.8 °F 40.1 °F 39.2 °F 87% 29.47 in - SW 4.6 mph - N/A   Clear
9:20 PM 42.8 °F 41.1 °F 39.2 °F 87% 29.47 in - WSW 3.5 mph - N/A   Clear
9:50 PM 42.8 °F 41.1 °F 39.2 °F 87% 29.47 in - SW 3.5 mph - N/A   Clear
10:20 PM 42.8 °F 39.3 °F 39.2 °F 87% 29.47 in 6.2 mi SW 5.8 mph - N/A   Scattered Clouds
10:50 PM 42.8 °F 41.1 °F 39.2 °F 87% 29.47 in 6.2 mi SW 3.5 mph - N/A   Mostly Cloudy
11:00 PM 42 °F - 39 °F 85% 29.50 in 25 mi SW 4.5 mph - -   Overcast
11:20 PM 41.0 °F 38.0 °F 37.4 °F 87% 29.47 in 6.2 mi WSW 4.6 mph - N/A   Scattered Clouds
11:50 PM 41.0 °F 37.1 °F 39.2 °F 93% 29.47 in 6.2 mi SW 5.8 mph - N/A   Partly Cloudy